Simultaneous Nadir Overpasses (SNOs) Predictions

Prediction of SNOs between FY3D and TERRA Satellite Orbit:

Table of predicted SNOs for the next 14.0 days since TLE Epoch: 6/29/2020
Index Date (FY3D) Time (FY3D) Lat,Lon (FY3D) SZA (FY3D ) Date (TERRA) Time (TERRA) Lat,Lon (TERRA) SZA (TERRA ) Distance(km) Time Diff (sec)
1 07/01/2020 08:53:58 -68.94,-134.26 134.22 07/01/2020 08:55:04 -68.92,-134.31 134.25 2.89 66
2 07/01/2020 09:44:41 68.80, 33.24 45.64 07/01/2020 09:44:31 68.81, 33.20 45.65 2.03 10
3 07/01/2020 10:35:17 -68.41,-158.92 134.76 07/01/2020 10:34:05 -68.48,-159.58 134.67 28.52 72
4 07/04/2020 01:10:22 -68.98, -18.40 133.97 07/04/2020 01:11:32 -68.97, -18.37 133.99 1.72 70
5 07/04/2020 02:01:05 68.85, 149.09 45.90 07/04/2020 02:00:59 68.85, 149.13 45.91 1.70 6
6 07/04/2020 02:51:44 -68.60, -43.26 134.35 07/04/2020 02:50:31 -68.64, -43.51 134.30 10.72 73
7 07/06/2020 17:26:47 -69.12, 97.31 133.55 07/06/2020 17:27:58 -69.06, 97.63 133.63 14.43 71
8 07/06/2020 18:17:27 68.84, -94.98 46.16 07/06/2020 18:17:27 68.83, -95.02 46.15 1.48 0
9 07/06/2020 19:08:09 -68.75, 72.45 133.93 07/06/2020 19:06:57 -68.73, 72.49 133.95 2.33 72
10 07/09/2020 09:43:13 -69.27,-146.98 133.09 07/09/2020 09:44:25 -69.14,-146.38 133.23 27.57 72
11 07/09/2020 10:33:51 68.88, 20.87 46.52 07/09/2020 10:33:55 68.86, 20.90 46.49 3.02 4
12 07/09/2020 11:24:32 -68.73,-171.62 133.63 07/09/2020 11:23:25 -68.76,-171.59 133.60 3.10 67
13 07/12/2020 01:59:40 -69.47, -31.36 132.53 07/12/2020 02:00:50 -69.33, -30.25 132.69 46.00 70
14 07/12/2020 02:50:14 68.88, 136.79 46.87 07/12/2020 02:50:23 68.88, 136.81 46.87 0.98 9
15 07/12/2020 03:40:55 -68.72, -55.69 133.29 07/12/2020 03:39:54 -68.73, -55.75 133.28 2.44 61
